Tracking 30923 objects as of 1-Jul-2025
HD Live streaming from Space Station
objects crossing your sky now

STARLINK-4560

Track STARLINK-4560 now!
10-day predictions


NORAD ID: 53691
Int'l Code: 2022-105AV
Perigee: 569.1 km
Apogee: 571.2 km
Inclination: 97.7 °
Period: 95.9 minutes
Semi major axis: 6941 km
RCS: Unknown
Launch date: August 31, 2022
Source: United States (US)
Launch site: AIR FORCE WESTERN TEST RANGE (AFWTR)
Your satellite tracking list
COSMOS 2251 DEB
Track 1 satellite(s)




NASA's NSSDC Master Catalog

Two Line Element Set (TLE):
1 53691U 22105AV  25181.90822429 -.00000078  00000-0 -14598-5 0  9996
2 53691  97.6565  63.3019 0001481 167.7095 192.4166 15.01259281155740
Source of the keplerian elements: AFSPC